| time (UTC) | temp F | wind direction | speed MPH | gust MPH | rain 1hr in | rain 24hr in | rain mn in | humidity % | barometer mb |
| 20260506211535 | 38 | 315 | 1.0 | 2.0 | 0.00 | 0.00 | 0.00 | 64 | 1010.8 |
| 20260506210515 | 38 | 0.0 | 1.0 | 0.00 | 0.00 | 0.00 | 64 | 1010.8 | |
| 20260506205515 | 38 | 0.0 | 1.0 | 0.00 | 0.00 | 0.00 | 63 | 1010.7 | |
| 20260506204515 | 38 | 0.0 | 0.0 | 0.00 | 0.00 | 0.00 | 62 | 1010.8 | |
| 20260506203518 | 38 | 0.0 | 0.0 | 0.00 | 0.00 | 0.00 | 60 | 1010.7 | |
| 20260506202517 | 39 | 0.0 | 2.0 | 0.00 | 0.00 | 0.00 | 59 | 1010.6 | |
| 20260506201517 | 39 | 0.0 | 1.0 | 0.00 | 0.00 | 0.00 | 56 | 1010.6 | |
| 20260506200517 | 39 | 0.0 | 0.0 | 0.00 | 0.00 | 0.00 | 55 | 1010.5 | |
| 20260506195517 | 39 | 0.0 | 1.0 | 0.00 | 0.00 | 0.00 | 53 | 1010.6 | |
| 20260506194517 | 39 | 0.0 | 0.0 | 0.00 | 0.00 | 0.00 | 53 | 1010.5 | |
| 20260506193517 | 40 | 315 | 1.0 | 3.0 | 0.00 | 0.00 | 0.00 | 51 | 1010.5 |
| 20260506192517 | 41 | 0.0 | 0.0 | 0.00 | 0.00 | 0.00 | 48 | 1010.5 | |
| 20260506191517 | 42 | 0.0 | 0.0 | 0.00 | 0.00 | 0.00 | 47 | 1010.5 | |
| 20260506190517 | 43 | 0.0 | 2.0 | 0.00 | 0.00 | 0.00 | 46 | 1010.5 | |
| 20260506185517 | 44 | 0.0 | 1.0 | 0.00 | 0.00 | 0.00 | 42 | 1010.4 | |
| 20260506184517 | 44 | 203 | 1.0 | 2.0 | 0.00 | 0.00 | 0.00 | 40 | 1010.3 |
| 20260506183517 | 45 | 203 | 1.0 | 3.0 | 0.00 | 0.00 | 0.00 | 39 | 1010.4 |
| 20260506182517 | 46 | 203 | 1.0 | 2.0 | 0.00 | 0.00 | 0.00 | 37 | 1010.3 |
| 20260506181517 | 47 | 203 | 1.0 | 2.0 | 0.00 | 0.00 | 0.00 | 36 | 1010.2 |
| 20260506180517 | 48 | 225 | 1.0 | 3.0 | 0.00 | 0.00 | 0.00 | 36 | 1010.2 |
| 20260506175517 | 49 | 225 | 1.0 | 2.0 | 0.00 | 0.00 | 0.00 | 34 | 1010.1 |
| 20260506174517 | 49 | 203 | 2.0 | 4.0 | 0.00 | 0.00 | 0.00 | 33 | 1010.1 |
| 20260506173517 | 50 | 203 | 2.0 | 4.0 | 0.00 | 0.00 | 0.00 | 32 | 1010.1 |
| 20260506172517 | 50 | 203 | 2.0 | 5.0 | 0.00 | 0.00 | 0.00 | 32 | 1010.1 |
| 20260506171517 | 51 | 225 | 3.0 | 7.0 | 0.00 | 0.00 | 0.00 | 31 | 1010.1 |
| 20260506170517 | 51 | 225 | 4.0 | 7.0 | 0.00 | 0.00 | 0.00 | 30 | 1010.1 |
| 20260506165517 | 52 | 180 | 5.0 | 10.0 | 0.00 | 0.00 | 0.00 | 29 | 1010.0 |
| 20260506164517 | 52 | 225 | 3.0 | 6.0 | 0.00 | 0.00 | 0.00 | 32 | 1010.0 |
| 20260506163537 | 53 | 203 | 3.0 | 9.0 | 0.00 | 0.00 | 0.00 | 31 | 1010.1 |
| 20260506162517 | 53 | 203 | 6.0 | 12.0 | 0.00 | 0.00 | 0.00 | 29 | 1010.1 |
| 20260506161517 | 54 | 203 | 7.0 | 13.0 | 0.00 | 0.00 | 0.00 | 28 | 1010.1 |
| 20260506160517 | 54 | 203 | 6.0 | 11.0 | 0.00 | 0.00 | 0.00 | 29 | 1010.1 |
| 20260506155517 | 54 | 225 | 6.0 | 13.0 | 0.00 | 0.00 | 0.00 | 29 | 1010.2 |
| 20260506154537 | 54 | 225 | 4.0 | 8.0 | 0.00 | 0.00 | 0.00 | 30 | 1010.1 |
| 20260506153517 | 54 | 225 | 6.0 | 12.0 | 0.00 | 0.00 | 0.00 | 30 | 1010.1 |
| 20260506152537 | 54 | 203 | 7.0 | 14.0 | 0.00 | 0.00 | 0.00 | 29 | 1010.2 |
| 20260506151517 | 53 | 225 | 3.0 | 11.0 | 0.00 | 0.00 | 0.00 | 31 | 1010.1 |
| 20260506150517 | 53 | 180 | 5.0 | 11.0 | 0.00 | 0.00 | 0.00 | 32 | 1010.2 |
| 20260506145517 | 54 | 203 | 4.0 | 7.0 | 0.00 | 0.00 | 0.00 | 33 | 1010.3 |
| 20260506144517 | 53 | 180 | 6.0 | 12.0 | 0.00 | 0.00 | 0.00 | 31 | 1010.4 |
| 20260506143517 | 53 | 203 | 5.0 | 12.0 | 0.00 | 0.00 | 0.00 | 33 | 1010.5 |
| 20260506142517 | 52 | 180 | 3.0 | 7.0 | 0.00 | 0.00 | 0.00 | 31 | 1010.5 |
| 20260506141517 | 53 | 180 | 6.0 | 10.0 | 0.00 | 0.00 | 0.00 | 31 | 1010.6 |
| 20260506140517 | 53 | 203 | 6.0 | 10.0 | 0.00 | 0.00 | 0.00 | 30 | 1010.7 |
| 20260506135517 | 53 | 180 | 8.0 | 16.0 | 0.00 | 0.00 | 0.00 | 31 | 1010.7 |
| 20260506134517 | 53 | 225 | 4.0 | 8.0 | 0.00 | 0.00 | 0.00 | 31 | 1010.7 |
| 20260506133517 | 53 | 225 | 5.0 | 9.0 | 0.00 | 0.01 | 0.00 | 30 | 1010.7 |
| 20260506132517 | 53 | 113 | 4.0 | 7.0 | 0.00 | 0.01 | 0.00 | 32 | 1010.8 |
| 20260506131517 | 53 | 203 | 5.0 | 8.0 | 0.00 | 0.01 | 0.00 | 32 | 1010.9 |
| 20260506130517 | 53 | 203 | 5.0 | 9.0 | 0.00 | 0.01 | 0.00 | 32 | 1010.9 |
| 20260506125517 | 53 | 180 | 6.0 | 9.0 | 0.00 | 0.01 | 0.00 | 32 | 1010.9 |
| 20260506124537 | 53 | 180 | 7.0 | 12.0 | 0.00 | 0.01 | 0.00 | 31 | 1011.0 |
| 20260506123517 | 53 | 180 | 6.0 | 13.0 | 0.00 | 0.01 | 0.00 | 33 | 1011.0 |
| 20260506122517 | 53 | 248 | 2.0 | 5.0 | 0.00 | 0.01 | 0.00 | 33 | 1011.0 |
| 20260506121517 | 53 | 203 | 2.0 | 5.0 | 0.00 | 0.01 | 0.00 | 32 | 1011.1 |
| 20260506120517 | 53 | 180 | 4.0 | 7.0 | 0.00 | 0.01 | 0.00 | 32 | 1011.2 |
| 20260506115517 | 54 | 135 | 7.0 | 16.0 | 0.00 | 0.01 | 0.00 | 32 | 1011.2 |
| 20260506114537 | 53 | 203 | 4.0 | 7.0 | 0.00 | 0.01 | 0.00 | 35 | 1011.3 |
| 20260506113537 | 53 | 225 | 5.0 | 11.0 | 0.00 | 0.01 | 0.00 | 34 | 1011.4 |
| 20260506112537 | 51 | 248 | 4.0 | 10.0 | 0.00 | 0.01 | 0.00 | 34 | 1011.4 |
| 20260506111517 | 50 | 270 | 3.0 | 5.0 | 0.00 | 0.01 | 0.00 | 35 | 1011.5 |
| 20260506110517 | 51 | 225 | 4.0 | 7.0 | 0.00 | 0.01 | 0.00 | 34 | 1011.5 |
| 20260506105517 | 52 | 293 | 4.0 | 8.0 | 0.00 | 0.01 | 0.00 | 34 | 1011.6 |
| 20260506104537 | 51 | 203 | 5.0 | 9.0 | 0.00 | 0.01 | 0.00 | 36 | 1011.7 |
| 20260506103517 | 51 | 203 | 5.0 | 10.0 | 0.00 | 0.01 | 0.00 | 35 | 1011.8 |
| 20260506102517 | 51 | 203 | 8.0 | 14.0 | 0.00 | 0.01 | 0.00 | 35 | 1011.8 |
| 20260506101517 | 52 | 180 | 9.0 | 17.0 | 0.00 | 0.01 | 0.00 | 33 | 1011.7 |
| 20260506100517 | 51 | 203 | 5.0 | 11.0 | 0.00 | 0.01 | 0.00 | 38 | 1011.8 |
| 20260506095517 | 52 | 225 | 5.0 | 11.0 | 0.00 | 0.01 | 0.00 | 36 | 1011.9 |
| 20260506094537 | 52 | 180 | 8.0 | 16.0 | 0.00 | 0.01 | 0.00 | 36 | 1012.0 |
| 20260506093517 | 51 | 158 | 8.0 | 14.0 | 0.00 | 0.01 | 0.00 | 34 | 1011.9 |
| 20260506092537 | 53 | 158 | 7.0 | 12.0 | 0.00 | 0.01 | 0.00 | 34 | 1012.0 |
| 20260506091537 | 51 | 180 | 8.0 | 16.0 | 0.00 | 0.01 | 0.00 | 36 | 1012.1 |
| 20260506090517 | 51 | 135 | 5.0 | 10.0 | 0.00 | 0.01 | 0.00 | 39 | 1012.1 |
| 20260506085517 | 50 | 113 | 4.0 | 8.0 | 0.00 | 0.01 | 0.00 | 38 | 1012.2 |
| 20260506084517 | 49 | 180 | 4.0 | 7.0 | 0.00 | 0.01 | 0.00 | 43 | 1012.4 |
| 20260506083537 | 48 | 113 | 4.0 | 8.0 | 0.00 | 0.01 | 0.00 | 44 | 1012.4 |
| 20260506082517 | 48 | 113 | 5.0 | 8.0 | 0.00 | 0.01 | 0.00 | 46 | 1012.5 |
| 20260506081517 | 47 | 23 | 3.0 | 9.0 | 0.00 | 0.01 | 0.00 | 44 | 1012.6 |
| 20260506080517 | 46 | 135 | 3.0 | 7.0 | 0.00 | 0.01 | 0.00 | 46 | 1012.6 |
| 20260506072517 | 44 | 45 | 1.0 | 3.0 | 0.00 | 0.01 | 0.00 | 53 | 1012.7 |
| 20260506071517 | 44 | 113 | 3.0 | 7.0 | 0.00 | 0.01 | 0.00 | 52 | 1012.7 |
| 20260506070517 | 44 | 23 | 2.0 | 5.0 | 0.00 | 0.01 | 0.00 | 53 | 1012.7 |
| 20260506062517 | 41 | 135 | 2.0 | 4.0 | 0.00 | 0.01 | 0.00 | 61 | 1012.7 |
| 20260506061537 | 40 | 90 | 1.0 | 3.0 | 0.00 | 0.01 | 0.00 | 63 | 1012.6 |
| 20260506060537 | 38 | 45 | 1.0 | 3.0 | 0.00 | 0.01 | 0.00 | 67 | 1012.5 |
| 20260506050516 | 31 | 293 | 1.0 | 2.0 | 0.00 | 0.01 | 0.00 | 83 | 1012.4 |
| 20260506044517 | 29 | 0.0 | 1.0 | 0.00 | 0.01 | 0.00 | 85 | 1012.3 | |
| 20260506043557 | 29 | 0.0 | 1.0 | 0.00 | 0.01 | 0.00 | 86 | 1012.4 | |
| 20260506042537 | 29 | 0.0 | 1.0 | 0.00 | 0.01 | 0.00 | 88 | 1012.3 | |
| 20260506041516 | 28 | 0.0 | 1.0 | 0.00 | 0.01 | 0.00 | 90 | 1012.3 | |
| 20260506040517 | 27 | 180 | 1.0 | 2.0 | 0.00 | 0.01 | 0.00 | 92 | 1012.2 |
| 20260506035536 | 25 | 0.0 | 0.0 | 0.00 | 0.01 | 0.00 | 91 | 1012.1 | |
| 20260506034516 | 24 | 180 | 1.0 | 1.0 | 0.00 | 0.01 | 0.00 | 90 | 1012.0 |
| 20260506033517 | 24 | 180 | 1.0 | 2.0 | 0.00 | 0.01 | 0.00 | 90 | 1011.9 |
| 20260506032517 | 24 | 180 | 1.0 | 1.0 | 0.00 | 0.01 | 0.00 | 90 | 1011.8 |
| 20260506031516 | 24 | 0.0 | 1.0 | 0.00 | 0.01 | 0.00 | 89 | 1011.8 | |
| 20260506030536 | 24 | 0.0 | 2.0 | 0.00 | 0.01 | 0.00 | 89 | 1011.8 | |
| 20260506025517 | 24 | 0.0 | 1.0 | 0.00 | 0.01 | 0.00 | 89 | 1011.7 | |
| 20260506024537 | 24 | 0.0 | 1.0 | 0.00 | 0.01 | 0.00 | 89 | 1011.7 | |
| 20260506023516 | 24 | 180 | 1.0 | 4.0 | 0.00 | 0.01 | 0.00 | 90 | 1011.6 |
| 20260506022516 | 24 | 225 | 1.0 | 2.0 | 0.00 | 0.01 | 0.00 | 89 | 1011.6 |
| 20260506021516 | 24 | 225 | 1.0 | 2.0 | 0.00 | 0.01 | 0.00 | 89 | 1011.4 |
| 20260506020516 | 24 | 0.0 | 1.0 | 0.00 | 0.01 | 0.00 | 88 | 1011.4 | |
| 20260506015517 | 25 | 225 | 1.0 | 2.0 | 0.00 | 0.01 | 0.00 | 88 | 1011.3 |
| 20260506014537 | 25 | 225 | 1.0 | 1.0 | 0.00 | 0.01 | 0.00 | 88 | 1011.3 |
| 20260506013537 | 25 | 0.0 | 1.0 | 0.00 | 0.01 | 0.00 | 88 | 1011.4 | |
| 20260506012517 | 25 | 0.0 | 1.0 | 0.00 | 0.01 | 0.00 | 88 | 1011.3 | |
| 20260506011517 | 25 | 225 | 1.0 | 2.0 | 0.00 | 0.01 | 0.00 | 87 | 1011.2 |
| 20260506010517 | 25 | 225 | 1.0 | 1.0 | 0.00 | 0.01 | 0.00 | 87 | 1011.1 |
| 20260506005517 | 26 | 248 | 2.0 | 3.0 | 0.00 | 0.01 | 0.00 | 87 | 1011.0 |
| 20260506004516 | 26 | 270 | 1.0 | 2.0 | 0.00 | 0.01 | 0.00 | 86 | 1010.9 |
| 20260506003516 | 26 | 270 | 1.0 | 2.0 | 0.00 | 0.01 | 0.00 | 86 | 1010.9 |
| 20260506002536 | 26 | 248 | 1.0 | 2.0 | 0.00 | 0.01 | 0.00 | 85 | 1010.8 |
| 20260506001516 | 26 | 248 | 1.0 | 2.0 | 0.00 | 0.01 | 0.00 | 85 | 1010.8 |
| 20260506000536 | 26 | 0.0 | 1.0 | 0.00 | 0.01 | 0.00 | 85 | 1010.8 | |
| 20260505235517 | 27 | 248 | 1.0 | 2.0 | 0.00 | 0.01 | 0.00 | 84 | 1010.7 |
| 20260505234516 | 27 | 0.0 | 1.0 | 0.00 | 0.01 | 0.00 | 83 | 1010.8 | |
| 20260505233516 | 27 | 0.0 | 0.0 | 0.00 | 0.01 | 0.00 | 83 | 1010.7 | |
| 20260505232516 | 27 | 0.0 | 1.0 | 0.00 | 0.01 | 0.00 | 82 | 1010.6 | |
| 20260505231536 | 28 | 0.0 | 1.0 | 0.00 | 0.01 | 0.00 | 82 | 1010.5 | |
| 20260505230517 | 28 | 0.0 | 1.0 | 0.00 | 0.01 | 0.00 | 81 | 1010.5 | |
| 20260505225556 | 28 | 315 | 1.0 | 2.0 | 0.00 | 0.01 | 0.00 | 81 | 1010.4 |
| 20260505224516 | 28 | 315 | 2.0 | 3.0 | 0.00 | 0.02 | 0.00 | 81 | 1010.5 |
| 20260505223516 | 28 | 0.0 | 2.0 | 0.00 | 0.02 | 0.00 | 81 | 1010.4 | |
| 20260505222516 | 29 | 0.0 | 1.0 | 0.00 | 0.03 | 0.00 | 80 | 1010.3 | |
| 20260505221536 | 29 | 315 | 1.0 | 2.0 | 0.00 | 0.03 | 0.00 | 79 | 1010.1 |
| 20260505220516 | 29 | 315 | 1.0 | 2.0 | 0.00 | 0.03 | 0.00 | 78 | 1010.1 |
| 20260505215516 | 30 | 315 | 2.0 | 3.0 | 0.00 | 0.04 | 0.04 | 77 | 1010.0 |
| 20260505214516 | 30 | 315 | 2.0 | 3.0 | 0.00 | 0.04 | 0.04 | 76 | 1010.0 |
| 20260505213515 | 30 | 315 | 2.0 | 3.0 | 0.00 | 0.04 | 0.04 | 75 | 1010.1 |
| 20260505212516 | 31 | 315 | 2.0 | 2.0 | 0.00 | 0.04 | 0.04 | 73 | 1009.9 |